| time (UTC) | temp F | wind direction | speed MPH | gust MPH | rain 1hr in | rain 24hr in | rain mn in | humidity % | barometer mb |
| 20260502184427 | 52 | 132 | 3.0 | 10.0 | 0.00 | 0.00 | 0.00 | 36 | 1014.1 |
| 20260502183427 | 50 | 112 | 3.0 | 13.0 | 0.00 | 0.00 | 0.00 | 39 | 1014.2 |
| 20260502182429 | 49 | 115 | 4.0 | 13.0 | 0.00 | 0.00 | 0.00 | 43 | 1014.2 |
| 20260502181427 | 49 | 111 | 5.0 | 12.0 | 0.00 | 0.00 | 0.00 | 43 | 1014.3 |
| 20260502180427 | 49 | 136 | 2.0 | 11.0 | 0.00 | 0.00 | 0.00 | 45 | 1014.3 |
| 20260502163427 | 44 | 111 | 10.0 | 16.0 | 0.00 | 0.00 | 0.00 | 56 | 1013.8 |
| 20260502162429 | 44 | 102 | 5.0 | 16.0 | 0.00 | 0.00 | 0.00 | 60 | 1013.7 |
| 20260502161427 | 43 | 100 | 9.0 | 15.0 | 0.00 | 0.00 | 0.00 | 60 | 1013.8 |
| 20260502160427 | 43 | 89 | 10.0 | 18.0 | 0.00 | 0.00 | 0.00 | 61 | 1013.7 |
| 20260502152226 | 41 | 99 | 12.0 | 24.0 | 0.00 | 0.00 | 0.00 | 65 | 1013.3 |
| 20260502151226 | 40 | 103 | 14.0 | 20.0 | 0.00 | 0.00 | 0.00 | 67 | 1013.1 |
| 20260502150228 | 40 | 97 | 12.0 | 21.0 | 0.00 | 0.00 | 0.00 | 67 | 1013.1 |
| 20260502130226 | 38 | 89 | 13.0 | 18.0 | 0.00 | 0.00 | 0.00 | 71 | 1012.2 |
| 20260502123225 | 37 | 81 | 8.0 | 17.0 | 0.00 | 0.00 | 0.00 | 72 | 1012.0 |
| 20260502122225 | 38 | 84 | 11.0 | 27.0 | 0.00 | 0.00 | 0.00 | 72 | 1011.8 |
| 20260502121226 | 38 | 80 | 10.0 | 20.0 | 0.00 | 0.00 | 0.00 | 71 | 1011.7 |
| 20260502120225 | 38 | 75 | 11.0 | 21.0 | 0.00 | 0.00 | 0.00 | 71 | 1011.7 |
| 20260502115226 | 38 | 90 | 12.0 | 25.0 | 0.00 | 0.00 | 0.00 | 71 | 1011.7 |
| 20260502114128 | 38 | 94 | 13.0 | 26.0 | 0.00 | 0.00 | 0.00 | 71 | 1011.9 |
| 20260502113128 | 38 | 92 | 11.0 | 21.0 | 0.00 | 0.00 | 0.00 | 71 | 1011.8 |
| 20260502112128 | 39 | 96 | 12.0 | 19.0 | 0.00 | 0.00 | 0.00 | 70 | 1012.0 |
| 20260502111128 | 39 | 89 | 8.0 | 26.0 | 0.00 | 0.00 | 0.00 | 70 | 1012.1 |
| 20260502110128 | 39 | 99 | 12.0 | 21.0 | 0.00 | 0.00 | 0.00 | 71 | 1011.9 |
| 20260502105128 | 39 | 75 | 9.0 | 22.0 | 0.00 | 0.00 | 0.00 | 70 | 1011.9 |
| 20260502104128 | 39 | 92 | 10.0 | 18.0 | 0.00 | 0.00 | 0.00 | 69 | 1012.0 |
| 20260502103128 | 39 | 90 | 10.0 | 21.0 | 0.00 | 0.00 | 0.00 | 68 | 1011.9 |
| 20260502102128 | 39 | 81 | 10.0 | 22.0 | 0.00 | 0.00 | 0.00 | 67 | 1011.9 |
| 20260502101128 | 40 | 85 | 8.0 | 20.0 | 0.00 | 0.00 | 0.00 | 63 | 1012.0 |
| 20260502100129 | 40 | 89 | 12.0 | 22.0 | 0.00 | 0.00 | 0.00 | 61 | 1011.8 |
| 20260502091132 | 42 | 82 | 12.0 | 21.0 | 0.00 | 0.00 | 0.00 | 32 | 1011.8 |
| 20260502090552 | 43 | 85 | 14.0 | 20.0 | 0.00 | 0.00 | 0.00 | 31 | 1011.8 |
| 20260502090133 | 43 | 85 | 14.0 | 20.0 | 0.00 | 0.00 | 0.00 | 31 | 1011.8 |
| 20260502071128 | 45 | 69 | 8.0 | 13.0 | 0.00 | 0.00 | 0.00 | 31 | 1012.1 |
| 20260502070128 | 45 | 67 | 6.0 | 12.0 | 0.00 | 0.00 | 0.00 | 30 | 1012.3 |
| 20260502065128 | 46 | 55 | 7.0 | 13.0 | 0.00 | 0.00 | 0.00 | 29 | 1012.3 |
| 20260502064128 | 46 | 53 | 7.0 | 12.0 | 0.00 | 0.00 | 0.00 | 30 | 1012.2 |
| 20260502063128 | 46 | 44 | 4.0 | 11.0 | 0.00 | 0.00 | 0.00 | 26 | 1012.3 |
| 20260502062128 | 47 | 54 | 6.0 | 12.0 | 0.00 | 0.00 | 0.00 | 20 | 1012.2 |
| 20260502061128 | 47 | 49 | 5.0 | 10.0 | 0.00 | 0.00 | 0.00 | 19 | 1012.1 |
| 20260502060128 | 47 | 39 | 4.0 | 9.0 | 0.00 | 0.00 | 0.00 | 17 | 1012.0 |
| 20260502055128 | 47 | 36 | 4.0 | 8.0 | 0.00 | 0.00 | 0.00 | 13 | 1012.0 |
| 20260502054556 | 48 | 354 | 2.0 | 6.0 | 0.00 | 0.00 | 0.00 | 11 | 1012.0 |
| 20260502054128 | 48 | 354 | 2.0 | 6.0 | 0.00 | 0.00 | 0.00 | 11 | 1012.0 |
| 20260502052722 | 48 | 333 | 4.0 | 8.0 | 0.00 | 0.00 | 0.00 | 13 | 1011.9 |
| 20260502051722 | 48 | 328 | 5.0 | 10.0 | 0.00 | 0.00 | 0.00 | 15 | 1011.9 |
| 20260502050721 | 48 | 324 | 5.0 | 9.0 | 0.00 | 0.00 | 0.00 | 16 | 1011.9 |
| 20260502045722 | 47 | 321 | 6.0 | 10.0 | 0.00 | 0.00 | 0.00 | 19 | 1011.8 |
| 20260502044721 | 47 | 317 | 7.0 | 10.0 | 0.00 | 0.00 | 0.00 | 23 | 1011.7 |
| 20260502043722 | 47 | 315 | 5.0 | 11.0 | 0.00 | 0.00 | 0.00 | 24 | 1011.7 |
| 20260502042725 | 47 | 313 | 7.0 | 10.0 | 0.00 | 0.00 | 0.00 | 29 | 1011.6 |
| 20260502041722 | 47 | 313 | 7.0 | 10.0 | 0.00 | 0.00 | 0.00 | 29 | 1011.6 |
| 20260502041206 | 47 | 307 | 9.0 | 12.0 | 0.00 | 0.00 | 0.00 | 27 | 1011.5 |
| 20260502040728 | 47 | 307 | 9.0 | 12.0 | 0.00 | 0.00 | 0.00 | 27 | 1011.5 |
| 20260502035722 | 46 | 311 | 10.0 | 13.0 | 0.00 | 0.00 | 0.00 | 27 | 1011.3 |
| 20260502034721 | 47 | 312 | 7.0 | 11.0 | 0.00 | 0.00 | 0.00 | 27 | 1011.2 |
| 20260502033723 | 47 | 306 | 7.0 | 15.0 | 0.00 | 0.00 | 0.00 | 26 | 1011.2 |
| 20260502032722 | 47 | 311 | 11.0 | 15.0 | 0.00 | 0.00 | 0.00 | 27 | 1010.9 |
| 20260502031721 | 47 | 307 | 8.0 | 17.0 | 0.00 | 0.00 | 0.00 | 27 | 1011.0 |
| 20260502030721 | 47 | 306 | 10.0 | 15.0 | 0.00 | 0.00 | 0.00 | 26 | 1010.7 |
| 20260502025722 | 47 | 309 | 9.0 | 18.0 | 0.00 | 0.00 | 0.00 | 26 | 1010.8 |
| 20260502024724 | 47 | 299 | 10.0 | 17.0 | 0.00 | 0.00 | 0.00 | 27 | 1010.5 |
| 20260502023723 | 47 | 294 | 12.0 | 17.0 | 0.00 | 0.00 | 0.00 | 27 | 1010.5 |
| 20260502022248 | 48 | 289 | 13.0 | 20.0 | 0.00 | 0.00 | 0.00 | 26 | 1010.3 |
| 20260502021723 | 48 | 289 | 13.0 | 20.0 | 0.00 | 0.00 | 0.00 | 26 | 1010.3 |
| 20260502015723 | 48 | 264 | 5.0 | 16.0 | 0.00 | 0.00 | 0.00 | 25 | 1010.3 |
| 20260502014722 | 49 | 276 | 6.0 | 17.0 | 0.00 | 0.00 | 0.00 | 24 | 1010.2 |
| 20260502013722 | 49 | 276 | 11.0 | 19.0 | 0.00 | 0.00 | 0.00 | 23 | 1010.1 |
| 20260502012721 | 50 | 259 | 8.0 | 24.0 | 0.00 | 0.00 | 0.00 | 23 | 1010.0 |
| 20260502011723 | 50 | 271 | 14.0 | 20.0 | 0.00 | 0.00 | 0.00 | 23 | 1010.0 |
| 20260502010721 | 50 | 270 | 9.0 | 23.0 | 0.00 | 0.00 | 0.00 | 23 | 1009.9 |
| 20260502005724 | 51 | 282 | 14.0 | 20.0 | 0.00 | 0.00 | 0.00 | 22 | 1009.9 |
| 20260502004723 | 52 | 269 | 7.0 | 16.0 | 0.00 | 0.00 | 0.00 | 22 | 1009.8 |
| 20260502003724 | 52 | 288 | 8.0 | 21.0 | 0.00 | 0.00 | 0.00 | 22 | 1009.9 |
| 20260502002721 | 51 | 268 | 12.0 | 23.0 | 0.00 | 0.00 | 0.00 | 21 | 1009.9 |
| 20260502001722 | 51 | 240 | 14.0 | 28.0 | 0.00 | 0.00 | 0.00 | 20 | 1009.7 |
| 20260502000722 | 52 | 264 | 14.0 | 24.0 | 0.00 | 0.00 | 0.00 | 20 | 1009.9 |
| 20260501235722 | 52 | 266 | 16.0 | 26.0 | 0.00 | 0.00 | 0.00 | 20 | 1009.8 |
| 20260501234721 | 52 | 261 | 15.0 | 24.0 | 0.00 | 0.00 | 0.00 | 21 | 1009.7 |
| 20260501233721 | 52 | 253 | 7.0 | 27.0 | 0.00 | 0.00 | 0.00 | 19 | 1009.9 |
| 20260501232721 | 53 | 269 | 11.0 | 21.0 | 0.00 | 0.00 | 0.00 | 19 | 1009.8 |
| 20260501231722 | 52 | 246 | 9.0 | 23.0 | 0.00 | 0.00 | 0.00 | 21 | 1009.8 |
| 20260501225721 | 52 | 251 | 12.0 | 19.0 | 0.00 | 0.00 | 0.00 | 23 | 1009.8 |
| 20260501224722 | 52 | 278 | 13.0 | 23.0 | 0.00 | 0.00 | 0.00 | 22 | 1009.8 |
| 20260501223722 | 51 | 239 | 8.0 | 21.0 | 0.00 | 0.00 | 0.00 | 24 | 1009.9 |
| 20260501222724 | 52 | 275 | 13.0 | 26.0 | 0.00 | 0.00 | 0.00 | 24 | 1009.9 |
| 20260501221721 | 52 | 264 | 14.0 | 25.0 | 0.00 | 0.00 | 0.00 | 24 | 1009.9 |
| 20260501215722 | 52 | 254 | 13.0 | 23.0 | 0.00 | 0.00 | 0.00 | 26 | 1009.9 |
| 20260501214727 | 52 | 254 | 9.0 | 29.0 | 0.00 | 0.00 | 0.00 | 24 | 1010.1 |
| 20260501213723 | 52 | 266 | 7.0 | 22.0 | 0.00 | 0.00 | 0.00 | 27 | 1010.1 |
| 20260501212722 | 52 | 236 | 11.0 | 18.0 | 0.00 | 0.00 | 0.00 | 26 | 1010.1 |
| 20260501211722 | 51 | 263 | 12.0 | 25.0 | 0.00 | 0.00 | 0.00 | 29 | 1010.3 |
| 20260501210724 | 52 | 254 | 10.0 | 21.0 | 0.00 | 0.00 | 0.00 | 27 | 1010.3 |
| 20260501202228 | 52 | 263 | 13.0 | 20.0 | 0.00 | 0.00 | 0.00 | 30 | 1010.5 |
| 20260501201228 | 52 | 271 | 7.0 | 17.0 | 0.00 | 0.00 | 0.00 | 32 | 1010.4 |
| 20260501200228 | 51 | 246 | 8.0 | 19.0 | 0.00 | 0.00 | 0.00 | 31 | 1010.4 |
| 20260501195228 | 52 | 274 | 9.0 | 19.0 | 0.00 | 0.00 | 0.00 | 33 | 1010.4 |
| 20260501194228 | 52 | 260 | 6.0 | 13.0 | 0.00 | 0.00 | 0.00 | 32 | 1010.5 |
| 20260501193232 | 53 | 258 | 3.0 | 10.0 | 0.00 | 0.00 | 0.00 | 31 | 1010.5 |
| 20260501192228 | 52 | 323 | 3.0 | 11.0 | 0.00 | 0.00 | 0.00 | 31 | 1010.7 |
| 20260501191228 | 51 | 294 | 3.0 | 14.0 | 0.00 | 0.00 | 0.00 | 35 | 1010.7 |
| 20260501190228 | 50 | 0 | 0.0 | 10.0 | 0.00 | 0.00 | 0.00 | 36 | 1010.8 |
| 20260501185228 | 51 | 281 | 3.0 | 9.0 | 0.00 | 0.00 | 0.00 | 35 | 1010.8 |